KD4UFD Weather Reports


time (UTC)temp
C
wind
direction
speed
KPH
gust
KPH
rain 1hr
cm
rain 24hr
cm
rain mn
cm
humidity
%
barometer
mb
20260504015849 11 279 0.0 0.0 0.00 0.00 0.00 71 1016.0
20260504015346 11 279 0.0 0.0 0.00 0.00 0.00 70 1016.1
20260504014842 11 279 0.0 0.0 0.00 0.00 0.00 69 1015.9
20260504014338 11 279 0.0 0.0 0.00 0.00 0.00 69 1015.9
20260504013836 11 279 0.0 0.0 0.00 0.00 0.00 69 1015.8
20260504013334 11 279 0.0 0.0 0.00 0.00 0.00 69 1015.9
20260504012830 11 279 0.0 0.0 0.00 0.00 0.00 68 1015.9
20260504012328 11 279 0.0 0.0 0.00 0.00 0.00 67 1015.6
20260504011825 12 278 0.0 0.0 0.00 0.00 0.00 67 1015.8
20260504011322 12 279 0.0 0.0 0.00 0.00 0.00 66 1015.9
20260504010817 12 279 0.0 0.0 0.00 0.00 0.00 65 1015.8
20260504010313 12 279 0.0 0.0 0.00 0.00 0.00 64 1016.0
20260504005810 13 279 0.0 0.0 0.00 0.00 0.00 64 1015.9
20260504005307 13 279 0.0 0.0 0.00 0.00 0.00 63 1016.1
20260504004805 13 271 0.0 0.0 0.00 0.00 0.00 61 1016.0
20260504004302 13 256 0.0 0.0 0.00 0.00 0.00 60 1015.9
20260504003758 14 256 0.0 0.0 0.00 0.00 0.00 59 1015.5
20260504003255 14 257 0.0 1.6 0.00 0.00 0.00 57 1015.6
20260504002752 15 244 0.0 0.0 0.00 0.00 0.00 55 1015.6
20260504002249 15 198 0.0 0.0 0.00 0.00 0.00 54 1015.6
20260504001746 15 198 0.0 0.0 0.00 0.00 0.00 53 1015.7
20260504001243 16 197 0.0 0.0 0.00 0.00 0.00 53 1015.7
20260504000740 16 215 0.0 0.0 0.00 0.00 0.00 52 1015.6
20260504000237 16 239 1.6 1.6 0.00 0.00 0.00 50 1015.6
20260503235735 16 210 0.0 0.0 0.00 0.00 0.00 50 1015.7
20260503235232 17 209 0.0 0.0 0.00 0.00 0.00 49 1015.9
20260503234730 17 220 1.6 1.6 0.00 0.00 0.00 49 1015.6
20260503234228 17 193 0.0 0.0 0.00 0.00 0.00 49 1015.8
20260503233725 17 228 1.6 1.6 0.00 0.00 0.00 48 1015.9
20260503233220 17 213 1.6 1.6 0.00 0.00 0.00 49 1015.8
20260503232717 17 223 1.6 1.6 0.00 0.00 0.00 46 1015.8
20260503232214 18 222 1.6 1.6 0.00 0.00 0.00 46 1015.8
20260503231713 18 284 1.6 1.6 0.00 0.00 0.00 45 1015.7
20260503231209 18 216 1.6 1.6 0.00 0.00 0.00 45 1016.2
20260503230705 18 226 1.6 1.6 0.00 0.00 0.00 43 1015.9
20260503230203 19 216 1.6 1.6 0.00 0.00 0.00 43 1016.2
20260503225700 18 228 0.0 0.0 0.00 0.00 0.00 44 1016.2
20260503225200 18 237 0.0 1.6 0.00 0.00 0.00 45 1016.1
20260503224658 18 226 1.6 1.6 0.00 0.00 0.00 44 1016.2
20260503224155 19 222 1.6 1.6 0.00 0.00 0.00 43 1016.2
20260503223653 18 242 1.6 1.6 0.00 0.00 0.00 42 1016.2
20260503223149 18 73 1.6 1.6 0.00 0.00 0.00 44 1016.4
20260503222646 18 212 3.2 3.2 0.00 0.00 0.00 43 1016.3
20260503222144 19 240 4.8 4.8 0.00 0.00 0.00 43 1016.4
20260503221642 19 340 1.6 3.2 0.00 0.00 0.00 43 1016.4
20260503221139 18 217 3.2 3.2 0.00 0.00 0.00 43 1016.6
20260503220636 19 345 1.6 4.8 0.00 0.00 0.00 44 1016.6
20260503220132 18 223 3.2 3.2 0.00 0.00 0.00 45 1016.7
20260503215630 18 224 1.6 1.6 0.00 0.00 0.00 46 1016.5
20260503215126 19 243 4.8 8.0 0.00 0.00 0.00 43 1016.6
20260503214625 18 220 4.8 4.8 0.00 0.00 0.00 44 1017.0
20260503214120 20 224 4.8 4.8 0.00 0.00 0.00 45 1016.9
20260503213614 19 206 1.6 1.6 0.00 0.00 0.00 42 1016.9
20260503213110 18 235 4.8 4.8 0.00 0.00 0.00 45 1016.9
20260503212608 19 242 6.4 8.0 0.00 0.00 0.00 42 1017.0
20260503212105 18 214 0.0 0.0 0.00 0.00 0.00 44 1017.0
20260503211603 18 336 8.0 12.9 0.00 0.00 0.00 41 1017.1
20260503211057 18 98 6.4 9.7 0.00 0.00 0.00 41 1017.2
20260503210555 18 224 1.6 1.6 0.00 0.00 0.00 43 1017.3
20260503210050 18 173 8.0 9.7 0.00 0.00 0.00 41 1017.3
20260503205547 18 303 3.2 3.2 0.00 0.00 0.00 40 1017.2
20260503205043 18 224 0.0 1.6 0.00 0.00 0.00 42 1017.3
20260503204541 18 188 9.7 12.9 0.00 0.00 0.00 39 1017.6
20260503204038 18 259 4.8 4.8 0.00 0.00 0.00 39 1017.8
20260503203535 18 226 8.0 11.3 0.00 0.00 0.00 39 1017.4
20260503203032 18 279 1.6 1.6 0.00 0.00 0.00 40 1017.7
20260503202530 18 218 1.6 3.2 0.00 0.00 0.00 42 1017.7
20260503202027 18 185 4.8 8.0 0.00 0.00 0.00 43 1017.8
20260503201526 18 129 4.8 8.0 0.00 0.00 0.00 41 1018.0
20260503201022 18 204 1.6 1.6 0.00 0.00 0.00 48 1018.2
20260503200519 19 196 4.8 8.0 0.00 0.00 0.00 44 1018.0
20260503200015 18 221 3.2 3.2 0.00 0.00 0.00 44 1018.3
20260503195513 18 207 1.6 1.6 0.00 0.00 0.00 43 1018.5
20260503195009 18 272 4.8 8.0 0.00 0.00 0.00 44 1018.5
20260503194507 17 219 4.8 8.0 0.00 0.00 0.00 47 1018.5
20260503194006 17 252 4.8 4.8 0.00 0.00 0.00 42 1018.4
20260503193503 17 186 6.4 8.0 0.00 0.00 0.00 41 1018.5
20260503192958 17 220 1.6 1.6 0.00 0.00 0.00 44 1018.6
20260503192455 17 202 4.8 4.8 0.00 0.00 0.00 42 1018.7
20260503191950 17 212 3.2 4.8 0.00 0.00 0.00 44 1018.7
20260503191448 17 185 8.0 11.3 0.00 0.00 0.00 42 1019.0
20260503190944 17 227 8.0 11.3 0.00 0.00 0.00 43 1018.9
20260503190442 17 150 1.6 3.2 0.00 0.00 0.00 47 1018.8
20260503185939 17 193 4.8 4.8 0.00 0.00 0.00 45 1018.9
20260503185435 16 161 1.6 3.2 0.00 0.00 0.00 51 1018.9
20260503184934 16 230 0.0 1.6 0.00 0.00 0.00 42 1019.1
20260503184431 17 352 4.8 8.0 0.00 0.00 0.00 43 1019.3
20260503183927 17 227 4.8 4.8 0.00 0.00 0.00 44 1019.2
20260503183424 16 214 8.0 9.7 0.00 0.00 0.00 43 1019.2
20260503182921 17 355 8.0 9.7 0.00 0.00 0.00 43 1019.2
20260503182420 17 222 1.6 1.6 0.00 0.00 0.00 50 1019.6
20260503181917 17 315 6.4 9.7 0.00 0.00 0.00 39 1019.5
20260503181414 16 299 4.8 4.8 0.00 0.00 0.00 45 1019.6
20260503180910 16 208 4.8 4.8 0.00 0.00 0.00 41 1019.4
20260503180409 16 191 3.2 3.2 0.00 0.00 0.00 44 1019.7
20260503175904 16 214 4.8 8.0 0.00 0.00 0.00 47 1019.6
20260503175403 16 321 3.2 3.2 0.00 0.00 0.00 43 1019.6
20260503174858 15 301 3.2 3.2 0.00 0.00 0.00 48 1020.0
20260503174356 15 162 4.8 8.0 0.00 0.00 0.00 50 1019.9
20260503173851 15 211 8.0 9.7 0.00 0.00 0.00 43 1019.8
20260503173348 16 206 1.6 3.2 0.00 0.00 0.00 47 1019.9
20260503172844 15 316 1.6 1.6 0.00 0.00 0.00 44 1020.3
20260503172342 16 228 6.4 8.0 0.00 0.00 0.00 42 1020.2
20260503171838 15 328 1.6 4.8 0.00 0.00 0.00 44 1020.2
20260503171335 16 14 4.8 8.0 0.00 0.00 0.00 44 1020.3
20260503170832 15 220 4.8 4.8 0.00 0.00 0.00 49 1020.4
20260503170329 15 214 6.4 8.0 0.00 0.00 0.00 47 1020.4
20260503150721 13 117 11.3 12.9 0.00 0.00 0.00 53 1021.3
20260503150217 13 156 1.6 1.6 0.00 0.00 0.00 48 1021.5
20260503140141 12 129 6.4 8.0 0.00 0.00 0.00 50 1021.3
20260503131111 11 123 3.2 3.2 0.00 0.00 0.00 68 1021.6
20260503130609 11 39 1.6 1.6 0.00 0.00 0.00 67 1021.3
20260503130107 11 134 1.6 3.2 0.00 0.00 0.00 69 1021.4
20260503110459 2 243 0.0 0.0 0.00 0.00 0.00 94 1020.0
20260503090350 4 243 0.0 0.0 0.00 0.00 0.00 89 1019.3
20260503081317 6 243 0.0 0.0 0.00 0.00 0.00 82 1018.7
20260503080814 6 243 0.0 0.0 0.00 0.00 0.00 82 1018.9
20260503080311 6 242 0.0 0.0 0.00 0.00 0.00 81 1018.8
20260503072748 7 205 0.0 0.0 0.00 0.00 0.00 76 1018.2
20260503072244 7 6 0.0 0.0 0.00 0.00 0.00 76 1018.2
20260503071741 7 337 0.0 0.0 0.00 0.00 0.00 76 1018.1
20260503071238 7 357 0.0 0.0 0.00 0.00 0.00 76 1018.0
20260503070734 7 275 0.0 0.0 0.00 0.00 0.00 77 1018.0
20260503070232 7 270 0.0 1.6 0.00 0.00 0.00 77 1018.3
20260503060151 8 219 0.0 0.0 0.00 0.00 0.00 76 1018.0
20260503054638 9 135 0.0 1.6 0.00 0.00 0.00 73 1018.0
20260503054136 9 32 0.0 0.0 0.00 0.00 0.00 72 1017.9
20260503053633 9 86 0.0 0.0 0.00 0.00 0.00 72 1017.8
20260503053132 10 8 0.0 0.0 0.00 0.00 0.00 71 1017.8
20260503052628 10 302 0.0 0.0 0.00 0.00 0.00 71 1017.8
20260503052124 10 331 1.6 1.6 0.00 0.00 0.00 71 1017.8
20260503051620 10 332 0.0 1.6 0.00 0.00 0.00 70 1018.0
20260503051118 10 39 1.6 3.2 0.00 0.00 0.00 70 1017.7
20260503050614 10 207 1.6 1.6 0.00 0.00 0.00 70 1017.7
20260503050111 10 313 0.0 0.0 0.00 0.00 0.00 71 1017.9
20260503045608 10 298 0.0 0.0 0.00 0.00 0.00 72 1017.7
20260503045105 10 280 1.6 1.6 0.00 0.00 0.00 72 1017.9
20260503044602 9 265 0.0 0.0 0.00 0.00 0.00 72 1017.6
20260503044100 9 310 0.0 1.6 0.00 0.00 0.00 72 1017.9
20260503043555 9 113 1.6 1.6 0.00 0.00 0.00 72 1017.7
20260503043052 9 284 0.0 0.0 0.00 0.00 0.00 72 1017.6
20260503042549 9 241 0.0 1.6 0.00 0.00 0.00 72 1017.8
20260503042045 10 308 0.0 1.6 0.00 0.00 0.00 71 1017.6
20260503041543 10 277 0.0 0.0 0.00 0.00 0.00 70 1017.5
20260503041040 10 308 0.0 1.6 0.00 0.00 0.00 70 1017.6
20260503040537 10 252 0.0 0.0 0.00 0.00 0.00 70 1017.7
20260503040034 10 328 0.0 1.6 0.00 0.00 0.00 69 1017.4
20260503035531 10 15 6.4 9.7 0.00 0.00 0.00 69 1017.4
20260503035029 10 50 3.2 3.2 0.00 0.00 0.00 68 1017.4
20260503034526 10 8 1.6 3.2 0.00 0.00 0.00 68 1017.5
20260503034023 11 69 3.2 4.8 0.00 0.00 0.00 67 1017.6
20260503033520 11 67 1.6 1.6 0.00 0.00 0.00 67 1017.5
20260503033018 11 16 1.6 1.6 0.00 0.00 0.00 67 1017.6
20260503032516 11 343 1.6 1.6 0.00 0.00 0.00 67 1017.3
20260503032014 11 238 1.6 1.6 0.00 0.00 0.00 66 1017.5
20260503031511 11 284 1.6 1.6 0.00 0.00 0.00 66 1017.4
20260503031008 11 69 1.6 3.2 0.00 0.00 0.00 66 1017.6
20260503030504 11 356 1.6 3.2 0.00 0.00 0.00 66 1017.4
20260503030002 11 303 4.8 8.0 0.00 0.00 0.00 66 1017.4
20260503025458 11 1 1.6 1.6 0.00 0.00 0.00 66 1017.4
20260503024956 11 301 3.2 3.2 0.00 0.00 0.00 66 1017.3
20260503024452 11 65 1.6 3.2 0.00 0.00 0.00 67 1017.3
20260503023949 11 24 1.6 3.2 0.00 0.00 0.00 66 1017.1
20260503023446 11 297 0.0 0.0 0.00 0.00 0.00 66 1017.1
20260503022943 11 62 3.2 3.2 0.00 0.00 0.00 67 1017.0
20260503022438 11 278 0.0 0.0 0.00 0.00 0.00 66 1017.2
20260503021934 11 49 0.0 0.0 0.00 0.00 0.00 67 1017.1
20260503021430 11 48 0.0 0.0 0.00 0.00 0.00 67 1016.9
20260503020928 11 53 0.0 0.0 0.00 0.00 0.00 67 1017.0
20260503020426 11 338 0.0 0.0 0.00 0.00 0.00 67 1016.9